Regional Weather Roundup
Issued by NWS

Home | Current Version | Previous Version | Text Only | Print | Product List | Glossary On
Versions: 1 2 3 4 5 6 7 8 9 10 11 12 13 14 15 16 17 18 19 20 21 22 23 24 25 26 27 28 29 30 31 32 33 34 35 36 37 38 39 40 41 42 43 44 45 46 47 48 49 50
000
ASUS43 KOAX 231410
RWRNE

WEATHER ROUNDUP FOR NEBRASKA
NATIONAL WEATHER SERVICE OMAHA NE
800 AM CST THU FEB 23 2017

NOTES: SATELLITE DATA IS BEING USED TO AUGMENT CLOUD COVER ABOVE
       12000 FEET.
       "FAIR" INDICATES FEW OR NO CLOUDS BELOW 12,000 FEET WITH NO
       SIGNIFICANT WEATHER AND/OR OBSTRUCTIONS TO VISIBILITY.

  * THESE STATIONS DO NOT REPORT WEATHER SUCH AS RAIN...SNOW OR FOG.

NEZ001>004-019>022-054>056-231500-
NEBRASKA PANHANDLE

CITY           SKY/WX    TMP DP  RH WIND       PRES   REMARKS
SCOTTSBLUFF    SNOW      28  25  88 E17       29.70S VSB 1/2 WCI  16
ALLIANCE       SNOW      25  23  92 E18       29.71F VSB 1/2 WCI  11
CHADRON        SNOW      27  25  92 NE12      29.78S VSB 1/2 WCI  17
KIMBALL        MIX PCPN  30  30 100 E14       29.65S WCI  19
SIDNEY         LGT SNOW  28  27  96 E14       29.66S FOG     WCI  17
$$

NEZ057>060-069>072-079>082-231500-
SOUTHWEST NEBRASKA

CITY           SKY/WX    TMP DP  RH WIND       PRES   REMARKS
NORTH PLATTE   CLOUDY    31  28  89 NE18      29.71S FOG     WCI  19
IMPERIAL       CLOUDY    34  32  92 NE14      29.66S WCI  25
LEXINGTON      FOG       32  30  93 NE18      29.71S VSB 1   WCI  20
MCCOOK         CLOUDY    36  33  89 NE24G31   29.65F WCI  24
OGALLALA       CLOUDY    32  31  95 NE18G24   29.70S WCI  20
$$

NEZ005>010-023>029-035>040-094-231500-
NORTH CENTRAL NEBRASKA

CITY           SKY/WX    TMP DP  RH WIND       PRES   REMARKS
VALENTINE      SNOW      26  22  84 NE16      29.83S VSB 1/2 WCI  14
AINSWORTH      LGT SNOW  27  26  99 NE17      29.82R WCI  14
BROKEN BOW     CLOUDY    30  29  96 NE16      29.74F FOG     WCI  19
O`NEILL        CLOUDY    30  28  94 NE14      29.83F WCI  19
ORD            FOG       31  29  92 NE16      29.77F VSB 1/2 WCI  20
THEDFORD       LGT SNOW  29  28  96 NE14G21   29.78R WCI  18
$$

NEZ041-046>049-061>064-073>077-083>087-231500-
SOUTH CENTRAL NEBRASKA

CITY           SKY/WX    TMP DP  RH WIND       PRES   REMARKS
GRAND ISLAND   CLOUDY    33  32  96 NE21G30   29.77R WCI  21
AURORA         CLOUDY    34  33  96 NE24G30   29.75S WCI  21
HASTINGS       CLOUDY    35  33  92 NE21G31   29.72F FOG     WCI  24
HEBRON         CLOUDY    39  35  86 NE20      29.69F WCI  30
HOLDREGE       CLOUDY    33  32  96 NE25      29.68F FOG     WCI  20
KEARNEY *      CLOUDY    34  28  80 NE21G28   29.73S VSB 1   WCI  22
YORK           CLOUDY    34  32  93 NE20      29.75F WCI  22
$$

NEZ011>018-030>034-042>045-231500-
NORTHEAST NEBRASKA

CITY           SKY/WX    TMP DP  RH WIND       PRES   REMARKS
NORFOLK        CLOUDY    32  29  88 NE21      29.80F WCI  20
ALBION         CLOUDY    33  31  93 NE13      29.80S FOG     WCI  24
BLAIR          CLOUDY    36  34  94 NE17G23   29.79F WCI  25
FREMONT        CLOUDY    36  34  94 NE13      29.81S WCI  27
TEKAMAH        CLOUDY    36  33  89 NE13      29.83F WCI  27
WAYNE          CLOUDY    33  32  96 NE12      29.85S WCI  24
$$

NEZ050>053-065>068-078-088>093-231500-
SOUTHEAST NEBRASKA

CITY           SKY/WX    TMP DP  RH WIND       PRES   REMARKS
LINCOLN        CLOUDY    37  34  89 NE16      29.78F WCI  28
OMAHA EPPLEY   CLOUDY    37  32  82 NE14      29.81F WCI  28
BEATRICE       CLOUDY    39  36  89 NE15G21   29.73F WCI  31
FALLS CITY     LGT RAIN  40  37  89 NE10      29.75R WCI  33
NEBRASKA CITY  CLOUDY    38  36  90 NE15      29.77S WCI  30
PLATTSMOUTH    CLOUDY    37  33  86 NE14      29.79R WCI  28
$$

NEZ044-045-051>053-067-231500-
OMAHA AREA

CITY           SKY/WX    TMP DP  RH WIND       PRES   REMARKS
OMAHA EPPLEY   CLOUDY    37  32  82 NE14      29.81F WCI  28
BLAIR          CLOUDY    36  34  94 NE17G23   29.79F WCI  25
FREMONT        CLOUDY    36  34  94 NE13      29.81S WCI  27
MILLARD        CLOUDY    39  36  89 NE8       29.80F WCI  33
OFFUTT AFB     CLOUDY    37  33  85 NE13      29.79S WCI  29
PLATTSMOUTH    CLOUDY    37  33  86 NE14      29.79R WCI  28
WAHOO          CLOUDY    36  33  91 NE16      29.79F WCI  26
$$




USA.gov is the U.S. government's official web portal to all federal, state and local government web resources and services.